CYCBCYHK

Guest
Details From CYCB - CAMBRIDGE BAY
To CYHK - Gjoa Haven
Flight Number -
Tags generated
Created
Modified
Stats Distance 203 nm / 377 km
Max Altitude 1,700 ft / 518 m
Waypoints 4
Social Downloads 0
Likes 0
Share VATSIM

Download

Looking for another format? Having issues loading an existing format? Contact us
Advertisement - Login to hide

Notes

Basic altitude profile: - Ascent Rate: 2500ft/min - Ascent Speed: 250kts - Cruise Altitude: 35000ft - Cruise Speed: 420kts - Descent Rate: 1500ft/min - Descent Speed: 250kts Options: - Use NATs: yes - Use PACOTS: yes - Use low airways: yes - Use high airways: yes

Route

CYCB CB RR30 YHK CYHK

ID Type Via Altitude Latitude Longitude Leg Dist Tot Dist Heading (true) Name
O CYCB APT - 0 ft / 0 m 69.10806˚ -105.13833˚ - 0 nm - CAMBRIDGE BAY
CB NDB - 900 ft / 274 m 69.11478˚ -105.01592˚ 2 nm 2 nm 81° / 81° CAMBRIDGE BAY NDB
YHK NDB RR30 (AWY-LO) 1,700 ft / 518 m 68.62611˚ -95.85833˚ 200 nm 202 nm 94° / 103° GJOA HAVEN NDB
O CYHK APT - 0 ft / 0 m 68.63545˚ -95.85024˚ 0 nm 203 nm 18° / 18° Gjoa Haven

Altitude Profile

Advertisement - Login to hide

Weather


0- 5 10 15 20 25 30 35+ Temperature / ° C

Clouds and Precipitation
Forecast for 2018-05-26 00:00 UTC. Updated 3 hours ago

Ground ~20,000 ft ~40,000 ft Winds

CYCB

Details ICAO CYCB (YCB)
Name CAMBRIDGE BAY
Region Canada
Timezone America/Cambridge_Bay (UTC-6.0)
Stats Elevation 90 ft / 27 m (AMSL)
Location 69.108056° -105.138334°
Runways 1
Magnetic Variation 6.829° E

METAR

CYCB 260209Z 12011G16KT 12SM FEW004 SCT010 BKN081 M06/M08 A2990 RMK SF1SC3AC3 SLP131

Decode

TAF

TAF AMD TAF AMD CYCB 260218Z 2602/2613 12015KT P6SM SCT010 BKN080 TEMPO 2602/2613 P6SM -SN SCT004 BKN010 OVC080 BECMG 2607/2609 07012KT RMK NXT FCST BY 260700Z

Decode

Departure Runways

ID Width Length Bearing (true) Bearing (mag) Surface Threshold Offset Overrun Length
13T 150 ft / 46 m 5,006 ft / 1,526 m 127.39° 120.56° Gravel 0 ft / 0 m 0 ft / 0 m
31T 150 ft / 46 m 5,006 ft / 1,526 m 307.42° 300.59° Gravel 0 ft / 0 m 100 ft / 30 m

CYHK

Details ICAO CYHK (YHK)
Name Gjoa Haven
Region Canada
Timezone America/Cambridge_Bay (UTC-6.0)
Stats Elevation 154 ft / 47 m (AMSL)
Location 68.635447° -95.850245°
Runways 1
Magnetic Variation 7.240° W

METAR

CYHK 260200Z AUTO 18010KT 9SM FEW170 M08/M09 A3003 RMK SLP178

Decode

TAF

TAF AMD TAF AMD CYHK 260013Z 2600/2612 20008KT P6SM FEW006 SCT015 OVC200 TEMPO 2600/2606 21/2SM -SN BR SCT006 OVC010 BECMG 2604/2606 12010KT FM260600 15010KT 3SM BR OVC008 TEMPO 2606/2612 2SM -SN BR OVC005 BECMG 2607/2609 12010KT RMK FCST BASED ON AUTO OBS. NXT FCST BY 260600Z

Decode

Destination Runways

ID Width Length Bearing (true) Bearing (mag) Surface Threshold Offset Overrun Length
13T 98 ft / 30 m 4,465 ft / 1,361 m 126.79° 134.03° Gravel 0 ft / 0 m 0 ft / 0 m
31T 98 ft / 30 m 4,465 ft / 1,361 m 306.81° 314.05° Gravel 0 ft / 0 m 0 ft / 0 m

Popular Alternatives